User: anonymous   Login
Location: Blanot
(47.1713°N, 4.2340°E)
Time: 15:56:08
(UTC+00:00)
Language:

Cosmos 1500 - Orbit

View from above orbital plane
View from above orbital plane
View from above satellite
View from above satellite

Ground track
Ground track

The orbit data is extracted from the following two-line orbital elements,

1 14372U 83099A   20270.95102214 +.00000855 +00000-0 +39379-4 0  9994
2 14372 082.5143 238.5630 0013524 234.2980 178.1307 15.18852281019202
Epoch (UTC): 26 September 2020 22:49:28
Eccentricity: 0.0013524
inclination: 82.5143°
perigee height: 500 km
apogee height: 518 km
right ascension of ascending node: 238.5630°
argument of perigee: 234.2980°
revolutions per day: 15.18852281
mean anomaly at epoch: 178.1307°
orbit number at epoch: 1920

The dashed part of the orbit path shows where the satellite is in the earth's shadow,  

DLR